sat.trackr.live / text

‹ back to catalog

TIANQI-33

NORAD 62365 · 2024-245A

PAYLOAD ACTIVE UNKNOWN

§ Identity

Operator
Country
PRC
Launch date
2024-12-19
Launch site
YSLA
Launch vehicle
Mass (kg)
RCS (m²)

External: N2YO · Heavens-Above · Gunter

§ Orbital elements

Epoch: 2026-09-22T21:55:29.820576Z

Period
102.91 min
Inclination
44.9827°
Eccentricity
0.0005769
Mean motion
13.99233508 rev/d
Perigee alt
892.3 km
Apogee alt
900.6 km
Semi-major
7,274.6 km
B*
5.6111e-5
RAAN
247.1794°
Arg perigee
117.2214°
Mean anomaly
242.9207°
Rev number
9,004

§ Raw data

TIANQI-331 62365U 24245A   26265.91353959 -.00000047  00000+0  56111-4 0  99932 62365  44.9827 247.1794 0005769 117.2214 242.9207 13.99233508 90049

JSON: /api/v1/satellites/62365 · /tle

For live sub-satellite position, see the globe view (requires WebGL).

§ Visibility from observer

Set your observer location to see the next 7 days of passes ≥ 10°. The values pass through the URL so the page stays shareable.

No JS? Fill the form by hand. The geolocation button needs JavaScript.